(179195) = 2001 TP163

Discovered at Palomar on 2001-10-11 by NEAT.

Orbit

Orbit type: Main Belt

Note: WebGL enabled browser required.

epoch2023-09-13.0
epoch JD2460200.5
perihelion date2019-08-22.89546
perihelion JD2458718.39546
argument of perihelion (°)353.14132
ascending node (°)36.64538
inclination (°)6.64360
eccentricity0.0325024
perihelion distance (AU)2.6099493
Tisserand w.r.t. Jupiter3.4
ΔV w.r.t. Earth (km/sec)10.3
semimajor axis (AU)2.6976288
mean anomaly (°)329.69275
mean daily motion (°/day)0.22244910
aphelion distance (AU)2.785
period (years)4.43
P-vector [x]0.86740211
P-vector [y]0.46186602
P-vector [z]0.18518466
Q-vector [x]-0.49279339
Q-vector [y]0.74566653
Q-vector [z]0.44848199
absolute magnitude16.55
phase slope0.15
uncertainty0
referenceMPO 778177
observations used318
oppositions15
arc length (days)8080
first opposition used2001
last opposition used2023
residual rms (arc-secs)0.71
perturbers coarse indicatorM-v
perturbers precise indicator003Ek
first observation date used2001-09-21.0
last observation date used2023-11-05.0
computer nameMPCLINUX
JD of orbit computation2456937.456999
perihelion JD uncertainty (days)2.4073E-04
argument of perihelion uncertainty (°)6.1204E-05
ascending node uncertainty (°)2.7866E-05
inclination uncertainty (°)3.6232E-06
eccentricity uncertainty 3.9665E-08
perihelion distance uncertainty (AU)1.1344E-07
Minimum Orbit Intersection Distances (in AU)
for orbit epoch: 2460200.5, reference: E2023-V65
Mercury2.24873
Venus1.88579
Earth1.61399
Mars1.07511
Jupiter2.33902
Saturn6.419
Uranus15.6926
Neptune27.2283

Observations

323 total observations over interval: 2001 09 21.40494 – 2023 11 05.309317
These data are available for download (format description).

Date (UT) J2000 RA J2000 Dec Magn Location Ref
2001 09 21.40494 01 28 56.32 +04 49 34.3 20.0   704 – Lincoln Laboratory ETS, New Mexico MPS 44324
2001 09 21.41918 01 28 55.56 +04 49 31.8 19.9   704 – Lincoln Laboratory ETS, New Mexico MPS 44324
2001 09 21.43343 01 28 55.00 +04 49 30.3 20.3   704 – Lincoln Laboratory ETS, New Mexico MPS 44324
2001 09 21.46194 01 28 53.69 +04 49 24.6 20.3   704 – Lincoln Laboratory ETS, New Mexico MPS 44324
2001 10 11.42447 01 12 05.08 +03 52 59.0 20.3   644 – Palomar Mountain/NEAT MPS 40935
2001 10 11.44540 01 12 03.92 +03 52 55.6 20.3   644 – Palomar Mountain/NEAT MPS 40935
2001 10 11.46642 01 12 02.74 +03 52 51.4 20.5   644 – Palomar Mountain/NEAT MPS 40935
2001 10 18.27675 01 05 50.19 +03 34 15.4 20.9   644 – Palomar Mountain/NEAT MPS 40935
2001 10 18.29709 01 05 49.02 +03 34 12.4 20.2   644 – Palomar Mountain/NEAT MPS 40935
2001 10 18.32061 01 05 47.73 +03 34 08.6 20.3   644 – Palomar Mountain/NEAT MPS 40935
2001 10 20.26513 01 04 04.14 +03 29 20.0 18.5   704 – Lincoln Laboratory ETS, New Mexico MPS 40935
2001 10 20.28157 01 04 03.23 +03 29 17.5 18.8   704 – Lincoln Laboratory ETS, New Mexico MPS 40935
2001 10 20.33086 01 04 00.58 +03 29 10.2 19.2   704 – Lincoln Laboratory ETS, New Mexico MPS 40935
2001 10 20.39172 01 03 57.19 +03 29 01.3 20.3   644 – Palomar Mountain/NEAT MPS 40935
2001 10 20.41406 01 03 55.99 +03 28 57.9 20.1   644 – Palomar Mountain/NEAT MPS 40935
2001 10 20.43543 01 03 54.88 +03 28 53.8 20.9   644 – Palomar Mountain/NEAT MPS 40935
2001 10 25.36219 00 59 43.13 +03 18 11.4 20.7 V 691 – Steward Observatory, Kitt Peak-Spacewatch MPS 40935
2001 10 25.38348 00 59 42.04 +03 18 09.0 20.3 V 691 – Steward Observatory, Kitt Peak-Spacewatch MPS 40935
2001 10 25.40488 00 59 40.95 +03 18 06.6 20.2 V 691 – Steward Observatory, Kitt Peak-Spacewatch MPS 40935
2003 01 29.192180 08 51 11.713 +28 27 02.55 20.60 V 645 – Apache Point-Sloan Digital Sky Survey MPS 139612
2003 01 29.195652 08 51 11.494 +28 27 03.37 21.55   645 – Apache Point-Sloan Digital Sky Survey MPS 139612
2003 04 26.127080 08 37 52.535 +25 25 37.88 21.79 V 645 – Apache Point-Sloan Digital Sky Survey MPS 139612
2003 04 26.130552 08 37 52.697 +25 25 36.72 22.86   645 – Apache Point-Sloan Digital Sky Survey MPS 139612
2004 04 25.34789 15 02 47.95 -18 33 08.8 21.1 V 691 – Steward Observatory, Kitt Peak-Spacewatch MPS 139259
2004 04 25.37570 15 02 46.40 -18 33 06.8 20.7 V 691 – Steward Observatory, Kitt Peak-Spacewatch MPS 139259
2004 04 25.40312 15 02 44.88 -18 33 04.9 20.7 V 691 – Steward Observatory, Kitt Peak-Spacewatch MPS 139259
2004 05 19.24365 14 40 38.47 -17 52 25.9 21.1 V 691 – Steward Observatory, Kitt Peak-Spacewatch MPS 139259
2004 05 19.27014 14 40 37.04 -17 52 22.5 21.0 V 691 – Steward Observatory, Kitt Peak-Spacewatch MPS 139259
2004 05 19.29673 14 40 35.59 -17 52 19.8 21.0 V 691 – Steward Observatory, Kitt Peak-Spacewatch MPS 139259
2006 11 17.34835 05 46 57.75 +29 40 59.8 20.9 V 691 – Steward Observatory, Kitt Peak-Spacewatch MPS 188425
2006 11 17.36577 05 46 57.05 +29 41 02.8 20.5 V 691 – Steward Observatory, Kitt Peak-Spacewatch MPS 188425
2006 11 17.38323 05 46 56.30 +29 41 06.7 20.5 V 691 – Steward Observatory, Kitt Peak-Spacewatch MPS 188425
2006 11 21.35595 05 44 03.72 +29 53 21.2 20.9 V 691 – Steward Observatory, Kitt Peak-Spacewatch MPS 188425
2006 11 21.37353 05 44 02.87 +29 53 24.3 20.9 V 691 – Steward Observatory, Kitt Peak-Spacewatch MPS 188425
2006 11 21.39136 05 44 01.98 +29 53 27.7 20.7 V 691 – Steward Observatory, Kitt Peak-Spacewatch MPS 188425
2006 11 25.31879 05 40 46.77 +30 04 35.3   691 – Steward Observatory, Kitt Peak-Spacewatch MPS 190326
2006 11 25.33618 05 40 45.80 +30 04 38.1   691 – Steward Observatory, Kitt Peak-Spacewatch MPS 190326
2006 11 25.35366 05 40 44.86 +30 04 41.3   691 – Steward Observatory, Kitt Peak-Spacewatch MPS 190326
2008 02 27.32592 12 46 04.70 +01 33 58.0   291 – LPL/Spacewatch II MPS 239325
2008 02 27.33451 12 46 04.40 +01 33 59.9   291 – LPL/Spacewatch II MPS 239325
2008 02 27.34310 12 46 04.11 +01 34 01.3   291 – LPL/Spacewatch II MPS 239325
2008 02 28.32387 12 45 32.16 +01 37 05.6 20.6 V 691 – Steward Observatory, Kitt Peak-Spacewatch MPS 239325
2008 02 28.34149 12 45 31.56 +01 37 09.3 20.4 V 691 – Steward Observatory, Kitt Peak-Spacewatch MPS 239325
2008 02 28.35910 12 45 30.92 +01 37 12.7 20.4 V 691 – Steward Observatory, Kitt Peak-Spacewatch MPS 239325
2008 03 15.25885 12 34 16.67 +02 35 45.5 20.6 V 691 – Steward Observatory, Kitt Peak-Spacewatch MPS 243509
2008 03 15.27658 12 34 15.76 +02 35 49.6 20.6 V 691 – Steward Observatory, Kitt Peak-Spacewatch MPS 243509
2008 03 15.29429 12 34 14.78 +02 35 54.5 21.6 V 691 – Steward Observatory, Kitt Peak-Spacewatch MPS 243509
2008 03 28.94389 12 22 18.40 +03 27 55.3 19.3 V A50 – Andrushivka Astronomical Observatory MPS 245617
2008 03 28.94560 12 22 18.37 +03 27 56.2 19.5 V A50 – Andrushivka Astronomical Observatory MPS 245617
2010 10 08.36829 02 23 44.23 +12 50 12.2 19.5 V 703 – Catalina Sky Survey MPS 353418
2010 10 08.37522 02 23 43.83 +12 50 12.1 19.8 V 703 – Catalina Sky Survey MPS 353418
2010 10 08.38221 02 23 43.44 +12 50 11.2 19.6 V 703 – Catalina Sky Survey MPS 353418
2010 10 08.38917 02 23 43.08 +12 50 10.3 20.7 V 703 – Catalina Sky Survey MPS 353418
2010 10 08.397546 02 23 43.018 +12 50 10.24 20.47 w F51 – Pan-STARRS 1, Haleakala MPS 365086
2010 10 08.415708 02 23 42.149 +12 50 08.95 20.45 w F51 – Pan-STARRS 1, Haleakala MPS 365086
2010 10 08.433945 02 23 41.274 +12 50 07.45 20.38 w F51 – Pan-STARRS 1, Haleakala MPS 365086
2010 10 08.564479 02 23 34.972 +12 49 56.85 20.91 g F51 – Pan-STARRS 1, Haleakala MPS 365086
2010 10 08.589021 02 23 33.800 +12 49 54.52 20.56 r F51 – Pan-STARRS 1, Haleakala MPS 365086
2010 10 08.600009 02 23 33.280 +12 49 53.70 20.73 r F51 – Pan-STARRS 1, Haleakala MPS 365086
2010 10 13.29802 02 19 44.40 +12 42 37.9 19.9   704 – Lincoln Laboratory ETS, New Mexico MPS 386768
2010 10 13.31197 02 19 43.59 +12 42 36.2 20.1   704 – Lincoln Laboratory ETS, New Mexico MPS 386768
2010 10 13.32567 02 19 42.97 +12 42 35.5 20.4   704 – Lincoln Laboratory ETS, New Mexico MPS 386768
2010 10 13.33998 02 19 42.30 +12 42 33.4 20.5   704 – Lincoln Laboratory ETS, New Mexico MPS 386768
2010 10 13.35371 02 19 41.42 +12 42 32.2 20.2   704 – Lincoln Laboratory ETS, New Mexico MPS 386768
2010 10 27.86279 02 06 18.30 +12 13 01.5 19.3 V J75 – OAM Observatory, La Sagra MPS 353418
2010 10 27.87714 02 06 17.45 +12 12 59.7 19.1 V J75 – OAM Observatory, La Sagra MPS 353418
2010 10 27.89146 02 06 16.63 +12 12 58.7 18.9 V J75 – OAM Observatory, La Sagra MPS 353418
2010 10 28.33080 02 05 51.14 +12 12 00.5 19.7 V G96 – Mt. Lemmon Survey MPS 353418
2010 10 28.33598 02 05 50.85 +12 11 59.7 19.6 V G96 – Mt. Lemmon Survey MPS 353418
2010 10 28.34124 02 05 50.53 +12 11 58.9 19.7 V G96 – Mt. Lemmon Survey MPS 353418
2010 10 28.34653 02 05 50.24 +12 11 58.2 19.8 V G96 – Mt. Lemmon Survey MPS 353418
2010 10 31.22913 02 03 05.79 +12 05 34.2 19.6 V G96 – Mt. Lemmon Survey MPS 355029
2010 10 31.23656 02 03 05.36 +12 05 33.3 19.6 V G96 – Mt. Lemmon Survey MPS 355029
2010 10 31.25159 02 03 04.50 +12 05 31.4 19.4 V G96 – Mt. Lemmon Survey MPS 355029
2010 11 03.16504 02 00 20.62 +11 59 10.1 19.6 V 703 – Catalina Sky Survey MPS 355029
2010 11 03.16904 02 00 20.44 +11 59 08.8 20.2 V 703 – Catalina Sky Survey MPS 355029
2010 11 03.17307 02 00 20.12 +11 59 08.4 20.4 V 703 – Catalina Sky Survey MPS 355029
2010 11 03.17708 02 00 19.98 +11 59 07.4 19.4 V 703 – Catalina Sky Survey MPS 355029
2010 11 06.20460 01 57 33.82 +11 52 45.7 19.8   704 – Lincoln Laboratory ETS, New Mexico MPS 357142
2010 11 06.22982 01 57 32.48 +11 52 43.8 19.9   704 – Lincoln Laboratory ETS, New Mexico MPS 357142
2010 11 06.24240 01 57 31.80 +11 52 42.0 20.2   704 – Lincoln Laboratory ETS, New Mexico MPS 357142
2010 11 07.344462 01 56 32.899 +11 50 27.93 20.56 g F51 – Pan-STARRS 1, Haleakala MPS 365086
2010 11 07.355724 01 56 32.280 +11 50 26.43 20.90 g F51 – Pan-STARRS 1, Haleakala MPS 365086
2010 11 11.19143 01 53 15.14 +11 43 09.1 20.1 V G96 – Mt. Lemmon Survey MPS 357142
2010 11 11.19782 01 53 14.82 +11 43 08.2 20.2 V G96 – Mt. Lemmon Survey MPS 357142
2010 11 11.20412 01 53 14.49 +11 43 07.7 20.1 V G96 – Mt. Lemmon Survey MPS 357142
